This is the latest recevied weather packets stored in our database for station/object W5COG. If no packets are shown the sender has not sent any weather packets the latest 1 day(s).
| Time | Temp. | Humidity | Pressure | Rain* | Wind** | Luminosity | Snow |
|---|---|---|---|---|---|---|---|
| 1778069128 | 8.89° C | 79% | 1016.1 hPa | 0 mm | - | 33 W/m² | - |
| 1778068528 | 8.89° C | 80% | 1016.1 hPa | 0 mm | - | 29 W/m² | - |
| 1778067928 | 8.89° C | 79% | 1015.9 hPa | 0 mm | - | 11 W/m² | - |
| 1778067628 | 8.89° C | 78% | 1016 hPa | 0 mm | - | 6 W/m² | - |
| 1778067328 | 8.89° C | 77% | 1016.3 hPa | 0 mm | - | 3 W/m² | - |
| 1778066728 | 8.89° C | 77% | 1016.4 hPa | 0 mm | - | 1 W/m² | - |
| 1778066428 | 8.89° C | 77% | 1016.5 hPa | 0 mm | - | 0 W/m² | - |
| 1778065528 | 8.89° C | 76% | 1016.3 hPa | 0 mm | - | 0 W/m² | - |
| 1778065228 | 8.89° C | 76% | 1016.3 hPa | 0 mm | - | 0 W/m² | - |
| 1778064928 | 8.89° C | 76% | 1016.2 hPa | 0 mm | - | 0 W/m² | - |
| 1778064628 | 8.89° C | 76% | 1016.2 hPa | 0 mm | - | 0 W/m² | - |
| 1778063128 | 8.89° C | 74% | 1015.5 hPa | 0 mm | - | 0 W/m² | - |
| 1778061928 | 8.89° C | 73% | 1015.1 hPa | 0 mm | - | 0 W/m² | - |
| 1778060428 | 9.44° C | 72% | 1015 hPa | 0 mm | - | 0 W/m² | - |
| 1778059528 | 9.44° C | 71% | 1015.1 hPa | 0 mm | - | 0 W/m² | - |
| 1778059228 | 9.44° C | 71% | 1014.8 hPa | 0 mm | - | 0 W/m² | - |
| 1778048128 | 9.44° C | 68% | 1013 hPa | 0 mm | - | 0 W/m² | - |
| 1778047828 | 9.44° C | 69% | 1013.1 hPa | 0 mm | - | 0 W/m² | - |
| 1778047528 | 9.44° C | 69% | 1013.2 hPa | 0 mm | - | 0 W/m² | - |
| 1778047228 | 9.44° C | 68% | 1013.1 hPa | 0 mm | - | 0 W/m² | - |
| 1778046928 | 9.44° C | 68% | 1013 hPa | 0 mm | - | 0 W/m² | - |
| 1778046628 | 9.44° C | 68% | 1012.9 hPa | 0 mm | - | 0 W/m² | - |
| 1778046328 | 9.44° C | 68% | 1012.9 hPa | 0 mm | - | 0 W/m² | - |
| 1778046028 | 9.44° C | 69% | 1012.9 hPa | 0 mm | - | 0 W/m² | - |
| 1778045728 | 9.44° C | 69% | 1012.9 hPa | 0 mm | - | 0 W/m² | - |
* Rain latest hour (hover to see other rain measurements)
** Current wind speed in m/s (hover to see current wind gust speed)